Location: Camerons Lookout
(40.9833°S, 175.9333°E)
Time: 06:40:51
(UTC+00:00)

USA 290 - Pass Details

Date: 14 January 2026
Orbit: 396 x 415 km, 73.6° (Epoch: 30 October)

Event Time Altitude Azimuth Distance (km) Brightness Sun altitude
Rises 10:17:47 0° 203° (SSW) 2,355 7.6 -21.1°
Reaches altitude 10° 10:19:51 10° 206° (SSW) 1,487 6.2 -21.3°
Enters shadow 10:22:43 57° 248° (WSW) 488 2.7 -21.6°
